Overview Statistics Trail Chart Weather Telemetry Raw packets
 

This is the latest recevied weather packets stored in our database for station/object KD7CIH. If no packets are shown the sender has not sent any weather packets the latest 10 day(s).

<< 76 77 78 79 80 81 82 >>
Time Temp. Humidity Pressure Rain* Wind** Luminosity Snow
1788150402 17.22° C 57% 1015.9 hPa 0 mm - - -
1788150101 17.22° C 57% 1015.8 hPa 0 mm - - -
1788149674 17.22° C 57% 1015.9 hPa 0 mm - - -
1788149375 17.22° C 57% 1015.9 hPa 0 mm - - -
1788149200 17.22° C 57% 1015.9 hPa 0 mm - - -
1788148901 17.22° C 58% 1015.9 hPa 0 mm - - -
1788148473 17.78° C 58% 1015.9 hPa 0 mm - - -
1788148173 17.78° C 57% 1015.9 hPa 0 mm - - -
1788147874 17.78° C 57% 1015.9 hPa 0 mm - - -
1788147573 17.78° C 56% 1015.9 hPa 0 mm - - -
1788147402 17.78° C 56% 1015.7 hPa 0 mm - - -
1788146973 18.33° C 56% 1015.7 hPa 0 mm - - -
1788146802 18.33° C 55% 1015.7 hPa 0 mm - - -
1788146372 18.33° C 54% 1015.5 hPa 0 mm - - -
1788146074 18.33° C 54% 1015.5 hPa 0 mm - - -
1788145774 18.33° C 53% 1015.5 hPa 0 mm - - -
1788145475 18.89° C 52% 1015.4 hPa 0 mm - - -
1788145300 18.89° C 50% 1015.3 hPa 0 mm - - -
1788144873 18.89° C 48% 1015.3 hPa 0 mm - - -
1788144575 18.33° C 45% 1015.2 hPa 0 mm - - -
1788144274 18.33° C 41% 1014.9 hPa 0 mm - - -
1788143973 18.33° C 42% 1014.9 hPa 0 mm - - -
1788143674 18.33° C 40% 1015.1 hPa 0 mm - - -
1788143375 18.89° C 41% 1014.9 hPa 0 mm - - -
1788143073 18.89° C 39% 1014.7 hPa 0 mm - - -

* Rain latest hour (hover to see other rain measurements)
** Current wind speed in m/s (hover to see current wind gust speed)